This is the latest recevied weather packets stored in our database for station/object YS1AHL-32. If no packets are shown the sender has not sent any weather packets the latest 1 day(s).
| Time | Temp. | Humidity | Pressure | Rain* | Wind** | Luminosity | Snow |
|---|---|---|---|---|---|---|---|
| 1778027737 | 11.67° C | 86% | 1006 hPa | 0 mm | - | - | - |
| 1778026596 | 12.78° C | 86% | 1005 hPa | 0 mm | - | - | - |
| 1778026536 | 12.78° C | 86% | 1005 hPa | 0 mm | - | - | - |
| 1778025995 | 13.33° C | 86% | 1005 hPa | 0 mm | - | - | - |
| 1778024133 | 15° C | 86% | 1005 hPa | 0 mm | - | - | - |
| 1778022992 | 12.22° C | 82% | 1004 hPa | 0 mm | - | - | - |
| 1778022331 | 12.78° C | 82% | 1004 hPa | 0 mm | - | - | - |
| 1778021791 | 13.33° C | 82% | 1004 hPa | 0 mm | - | - | - |
| 1778021130 | 13.89° C | 82% | 1004 hPa | 0 mm | - | - | - |
| 1778019989 | 15° C | 82% | 1004 hPa | 0 mm | - | - | - |
| 1778019929 | 15° C | 82% | 1004 hPa | 0 mm | - | - | - |
| 1778019328 | 15.56° C | 82% | 1004 hPa | 0 mm | - | - | - |
| 1778018127 | 16.11° C | 82% | 1003 hPa | 0 mm | - | - | - |
| 1778016986 | 13.33° C | 78% | 1003 hPa | 0 mm | - | - | - |
| 1778016325 | 13.89° C | 78% | 1003 hPa | 0.25 mm | - | - | - |
| 1778015184 | 15° C | 78% | 1003 hPa | 0 mm | - | - | - |
| 1778015124 | 15° C | 78% | 1003 hPa | 0 mm | - | - | - |
| 1778013983 | 15.56° C | 78% | 1003 hPa | 0 mm | - | - | - |
| 1778011520 | 17.22° C | 61% | 1001 hPa | 0 mm | - | - | - |
| 1778009779 | 17.22° C | 58% | 1001 hPa | 0.51 mm | - | - | - |
| 1778009719 | 17.22° C | 58% | 1001 hPa | 0.51 mm | - | - | - |
| 1778008578 | 20° C | 45% | 1000 hPa | 0.25 mm | - | - | - |
| 1778006716 | 21.67° C | 45% | 1000 hPa | 0 mm | - | - | - |
| 1778003713 | 21.11° C | 47% | 1001 hPa | 0 mm | - | - | - |
| 1778003112 | 21.67° C | 47% | 1001 hPa | 0 mm | - | - | - |
* Rain latest hour (hover to see other rain measurements)
** Current wind speed in m/s (hover to see current wind gust speed)